Powrót do katalogu

DELTA 1 R/B

AktywnyPO
NORAD 20323·ROCKET BODY·🇺🇸 United States

Wystrzelony Nov 18, 1989 z Vandenberg Space Force Base

Loading…

Następne Przeloty (najbliższe 24 godziny)

TLE

ŚwieżeSource: Space-Track

Epoka: Sep 13, 2026, 23:38 UTC

1 20323U 89089B   26256.98529183  .00000205  00000-0  59585-4 0  9993
2 20323  97.0661  74.3520 0067597 246.8969 112.5095 14.50774214923035

Śledź DELTA 1 R/B w czasie rzeczywistym z AllMySat

Download on the App Store